Location: Bergnershof
(48.9468°N, 10.9431°E)
Time: 10:34:50
(UTC+00:00)

CZ-2C R/B - Pass Details

Date: 03 March 2021
Orbit: 703 x 909 km, 98.1° (Epoch: 12 April)

Event Time Altitude Azimuth Distance (km) Brightness Sun altitude
Rises 17:20:57 0° 166° (SSE) 3,507 6.3 -3.8°
Reaches altitude 10° 17:23:24 10° 167° (SSE) 2,556 5.6 -4.2°
Maximum altitude 17:29:08 85° 256° (WSW) 879 3.4 -5.1°
Drops below altitude 10° 17:34:39 10° 345° (NNW) 2,463 5.8 -6.0°
Sets 17:36:58 0° 346° (NNW) 3,372 6.5 -6.4°
